Location: Barcelona
(41.3830°N, 2.1830°E)
Time: 04:16:02
(UTC+01:00)

ISS - Pass Details

Date: 13 November 2019
Orbit: 412 x 421 km, 51.6° (Epoch: 12 November)

Event Time Altitude Azimuth Distance (km) Brightness Sun altitude
Exits shadow 05:48:32 38° 184° (S) 650 -2.9 -20.4°
Drops below altitude 10° 05:51:04 10° 147° (SSE) 1,492 -0.5 -19.9°
Sets 05:53:12 0° 141° (SE) 2,350 0.7 -19.5°
